Location: Oberwangen
(47.4286°N, 8.9679°E)
Time: 15:36:23
(UTC+00:00)

Geosat - Pass Details

Date: 20 June 2021
Orbit: 762 x 766 km, 108.0° (Epoch: 02 August)

Event Time Altitude Azimuth Distance (km) Brightness Sun altitude
Exits shadow 20:24:38 10° 131° (SE) 2,298 5.8 -8.3°
Reaches altitude 10° 20:24:38 10° 131° (SE) 2,295 5.8 -8.3°
Maximum altitude 20:29:30 54° 55° (NE) 925 4.4 -8.8°
Drops below altitude 10° 20:34:24 10° 339° (NNW) 2,311 7.8 -9.3°
Sets 20:36:43 0° 335° (NNW) 3,242 9.1 -9.6°
